User: anonymous   Login
Location: Unspecified
(0.0000°N, 0.0000°E)
Time: 18:54:08
(UTC+00:00)
Language:

GALASSIA - Orbit

View from above orbital plane
View from above orbital plane
View from above satellite
View from above satellite

Ground track
Ground track

The orbit data is extracted from the following two-line orbital elements,

1 41170U 15077E   17084.19165977 +.00002744 +00000-0 +11729-3 0  9998
2 41170 014.9894 059.7790 0013697 308.6323 051.2772 15.11790700070347
Epoch (UTC): 25 March 2017 04:35:59
Eccentricity: 0.0013697
inclination: 14.9894°
perigee height: 521 km
apogee height: 540 km
right ascension of ascending node: 59.7790°
argument of perigee: 308.6323°
revolutions per day: 15.11790700
mean anomaly at epoch: 51.2772°
orbit number at epoch: 7034

The dashed part of the orbit path shows where the satellite is in the earth's shadow,  

DLR